Location: Bogis-Bossey
(46.3500°N, 6.1667°E)
Time: 17:26:54
(UTC+00:00)

NOSS 3-2 (C) - Pass Details

Date: 17 August 2022
Orbit: 747 x 1465 km, 63.4° (Epoch: 11 September)

Event Time Altitude Azimuth Distance (km) Brightness Sun altitude
Rises 22:57:09 0° 320° (NW) 3,911 7.5 -29.7°
Reaches altitude 10° 22:59:40 10° 322° (NW) 3,048 6.8 -29.8°
Maximum altitude 23:07:09 78° 49° (NE) 1,321 4.1 -30.0°
Enters shadow 23:09:04 57° 121° (ESE) 1,531 4.2 -30.1°
